Time,TemperatureF,DewpointF,PressureIn,WindDirection,WindDirectionDegrees,WindSpeedMPH,WindSpeedGustMPH,Humidity,HourlyPrecipIn,Conditions,Clouds,dailyrainin,SoftwareType,DateUTC
2013-05-11 00:00:00,42.8,35.4,29.85,North,0,0.0,0.0,75,0.00,,,-99.99,VWS V12.07,2013-05-11 05:00:00,
2013-05-11 00:10:00,42.4,35.1,29.85,North,0,0.0,0.0,75,0.00,,,-99.99,VWS V12.07,2013-05-11 05:10:00,
2013-05-11 00:19:00,42.4,35.4,29.85,North,0,0.0,0.0,76,0.00,,,-99.99,VWS V12.07,2013-05-11 05:19:00,
2013-05-11 00:24:00,42.3,35.2,29.85,North,0,0.0,0.0,76,0.00,,,-99.99,VWS V12.07,2013-05-11 05:24:00,
2013-05-11 00:29:00,42.3,35.2,29.85,North,0,0.0,0.0,76,0.00,,,-99.99,VWS V12.07,2013-05-11 05:29:00,
2013-05-11 00:40:00,41.7,34.7,29.85,North,0,0.0,0.0,76,0.00,,,-99.99,VWS V12.07,2013-05-11 05:40:00,
2013-05-11 00:50:00,41.4,34.4,29.85,North,0,0.0,0.0,76,0.00,,,-99.99,VWS V12.07,2013-05-11 05:50:00,
2013-05-11 00:55:00,41.2,34.2,29.85,North,0,0.0,0.0,76,0.00,,,-99.99,VWS V12.07,2013-05-11 05:55:00,
2013-05-11 01:00:00,41.2,34.2,29.85,North,0,0.0,0.0,76,0.00,,,-99.99,VWS V12.07,2013-05-11 06:00:00,
2013-05-11 01:05:00,41.0,34.0,29.85,North,0,0.0,0.0,76,0.00,,,-99.99,VWS V12.07,2013-05-11 06:05:00,
2013-05-11 01:10:00,41.0,34.0,29.85,North,0,0.0,0.0,76,0.00,,,-99.99,VWS V12.07,2013-05-11 06:10:00,
2013-05-11 01:20:00,40.8,34.2,29.82,North,0,0.0,0.0,77,0.00,,,-99.99,VWS V12.07,2013-05-11 06:20:00,
2013-05-11 01:25:00,40.6,34.0,29.82,North,0,0.0,0.0,77,0.00,,,-99.99,VWS V12.07,2013-05-11 06:25:00,
2013-05-11 01:30:00,40.6,34.0,29.82,North,0,0.0,0.0,77,0.00,,,-99.99,VWS V12.07,2013-05-11 06:30:00,
2013-05-11 01:35:00,40.5,33.8,29.82,North,0,0.0,0.0,77,0.00,,,-99.99,VWS V12.07,2013-05-11 06:35:00,
2013-05-11 01:40:00,40.3,33.7,29.82,North,0,0.0,0.0,77,0.00,,,-99.99,VWS V12.07,2013-05-11 06:40:00,
2013-05-11 01:50:00,40.1,33.5,29.82,North,0,0.0,0.0,77,0.00,,,-99.99,VWS V12.07,2013-05-11 06:50:00,
2013-05-11 01:55:00,40.1,33.5,29.82,North,0,0.0,0.0,77,0.00,,,-99.99,VWS V12.07,2013-05-11 06:55:00,
2013-05-11 02:00:00,39.9,33.3,29.82,North,0,0.0,0.0,77,0.00,,,-99.99,VWS V12.07,2013-05-11 07:00:00,
2013-05-11 02:05:00,39.9,33.6,29.82,North,0,0.0,0.0,78,0.00,,,-99.99,VWS V12.07,2013-05-11 07:05:00,
2013-05-11 02:10:00,39.9,33.6,29.82,North,0,0.0,0.0,78,0.00,,,-99.99,VWS V12.07,2013-05-11 07:10:00,
2013-05-11 02:15:00,39.9,33.6,29.82,North,0,0.0,0.0,78,0.00,,,-99.99,VWS V12.07,2013-05-11 07:15:00,
2013-05-11 02:20:00,39.9,33.6,29.79,North,0,0.0,0.0,78,0.00,,,-99.99,VWS V12.07,2013-05-11 07:20:00,
2013-05-11 02:25:00,40.1,33.8,29.79,North,0,0.0,0.0,78,0.00,,,-99.99,VWS V12.07,2013-05-11 07:25:00,
2013-05-11 02:30:00,40.1,33.8,29.79,North,0,0.0,0.0,78,0.00,,,-99.99,VWS V12.07,2013-05-11 07:30:00,
2013-05-11 02:35:00,39.9,33.6,29.82,North,0,0.0,0.0,78,0.00,,,-99.99,VWS V12.07,2013-05-11 07:35:00,
2013-05-11 02:40:00,39.9,33.6,29.82,North,0,0.0,0.0,78,0.00,,,-99.99,VWS V12.07,2013-05-11 07:40:00,
2013-05-11 02:45:00,39.9,34.0,29.82,North,0,0.0,0.0,79,0.00,,,-99.99,VWS V12.07,2013-05-11 07:45:00,
2013-05-11 02:55:00,39.9,34.0,29.79,North,0,0.0,0.0,79,0.00,,,-99.99,VWS V12.07,2013-05-11 07:55:00,
2013-05-11 03:00:00,39.9,34.0,29.79,North,0,0.0,0.0,79,0.00,,,-99.99,VWS V12.07,2013-05-11 08:00:00,
2013-05-11 03:05:00,39.9,34.0,29.79,North,0,0.0,0.0,79,0.00,,,-99.99,VWS V12.07,2013-05-11 08:05:00,
2013-05-11 03:10:00,39.7,34.1,29.79,North,0,0.0,0.0,80,0.00,,,-99.99,VWS V12.07,2013-05-11 08:10:00,
2013-05-11 03:15:00,39.7,34.1,29.79,North,0,0.0,0.0,80,0.00,,,-99.99,VWS V12.07,2013-05-11 08:15:00,
2013-05-11 03:24:00,39.7,34.1,29.79,North,0,0.0,0.0,80,0.00,,,-99.99,VWS V12.07,2013-05-11 08:24:00,
2013-05-11 03:29:00,39.7,34.1,29.79,North,0,0.0,0.0,80,0.00,,,-99.99,VWS V12.07,2013-05-11 08:29:00,
2013-05-11 03:35:00,39.7,34.1,29.79,North,0,0.0,0.0,80,0.00,,,-99.99,VWS V12.07,2013-05-11 08:35:00,
2013-05-11 03:39:00,39.7,34.1,29.79,North,0,0.0,0.0,80,0.00,,,-99.99,VWS V12.07,2013-05-11 08:39:00,
2013-05-11 03:45:00,39.7,34.4,29.79,North,0,0.0,0.0,81,0.00,,,-99.99,VWS V12.07,2013-05-11 08:45:00,
2013-05-11 03:54:00,39.9,34.6,29.79,North,0,0.0,0.0,81,0.00,,,-99.99,VWS V12.07,2013-05-11 08:54:00,
2013-05-11 04:00:00,39.9,34.6,29.79,North,0,0.0,0.0,81,0.00,,,-99.99,VWS V12.07,2013-05-11 09:00:00,
2013-05-11 04:09:00,40.5,35.4,29.79,North,0,0.0,0.0,82,0.00,,,-99.99,VWS V12.07,2013-05-11 09:09:00,
2013-05-11 04:15:00,40.5,35.4,29.79,North,0,0.0,0.0,82,0.00,,,-99.99,VWS V12.07,2013-05-11 09:15:00,
2013-05-11 04:25:00,40.8,35.8,29.79,North,0,0.0,0.0,82,0.00,,,-99.99,VWS V12.07,2013-05-11 09:25:00,
2013-05-11 04:30:00,41.0,35.9,29.79,North,0,0.0,0.0,82,0.00,,,-99.99,VWS V12.07,2013-05-11 09:30:00,
2013-05-11 04:35:00,41.2,36.1,29.79,North,0,0.0,0.0,82,0.00,,,-99.99,VWS V12.07,2013-05-11 09:35:00,
2013-05-11 04:40:00,41.4,36.3,29.79,North,0,0.0,0.0,82,0.00,,,-99.99,VWS V12.07,2013-05-11 09:40:00,
2013-05-11 04:45:00,41.5,36.5,29.79,North,0,0.0,0.0,82,0.00,,,-99.99,VWS V12.07,2013-05-11 09:45:00,
2013-05-11 04:55:00,41.7,36.6,29.79,North,0,0.0,0.0,82,0.00,,,-99.99,VWS V12.07,2013-05-11 09:55:00,
2013-05-11 05:00:00,41.9,37.1,29.79,North,0,0.0,0.0,83,0.00,,,-99.99,VWS V12.07,2013-05-11 10:00:00,
2013-05-11 05:05:00,42.1,37.3,29.79,North,0,0.0,0.0,83,0.00,,,-99.99,VWS V12.07,2013-05-11 10:05:00,
2013-05-11 05:10:00,42.3,37.5,29.79,North,0,0.0,0.0,83,0.00,,,-99.99,VWS V12.07,2013-05-11 10:10:00,
2013-05-11 05:15:00,42.3,37.5,29.79,North,0,0.0,0.0,83,0.00,,,-99.99,VWS V12.07,2013-05-11 10:15:00,
2013-05-11 05:20:00,42.4,37.7,29.76,North,0,0.0,0.0,83,0.00,,,-99.99,VWS V12.07,2013-05-11 10:20:00,
2013-05-11 05:25:00,42.6,37.8,29.76,North,0,0.0,0.0,83,0.00,,,-99.99,VWS V12.07,2013-05-11 10:25:00,
2013-05-11 05:30:00,42.6,38.1,29.76,North,0,0.0,0.0,84,0.00,,,-99.99,VWS V12.07,2013-05-11 10:30:00,
2013-05-11 05:35:00,42.8,38.0,29.76,North,0,0.0,0.0,83,0.00,,,-99.99,VWS V12.07,2013-05-11 10:35:00,
2013-05-11 05:40:00,43.0,38.5,29.76,North,0,0.0,0.0,84,0.00,,,-99.99,VWS V12.07,2013-05-11 10:40:00,
2013-05-11 05:45:00,43.2,38.7,29.76,North,0,0.0,0.0,84,0.00,,,-99.99,VWS V12.07,2013-05-11 10:45:00,
2013-05-11 05:55:00,43.5,39.0,29.76,North,0,0.0,0.0,84,0.00,,,-99.99,VWS V12.07,2013-05-11 10:55:00,
2013-05-11 06:00:00,43.7,39.2,29.76,North,0,0.0,0.0,84,0.00,,,-99.99,VWS V12.07,2013-05-11 11:00:00,
2013-05-11 06:09:00,44.1,39.8,29.76,North,0,0.0,0.0,85,0.00,,,-99.99,VWS V12.07,2013-05-11 11:09:00,
2013-05-11 06:15:00,44.2,40.0,29.76,North,0,0.0,0.0,85,0.00,,,-99.99,VWS V12.07,2013-05-11 11:15:00,
2013-05-11 06:20:00,44.2,40.0,29.76,North,0,0.0,0.0,85,0.00,,,-99.99,VWS V12.07,2013-05-11 11:20:00,
2013-05-11 06:29:00,44.4,40.2,29.76,North,0,0.0,0.0,85,0.00,,,-99.99,VWS V12.07,2013-05-11 11:29:00,
2013-05-11 06:35:00,44.6,40.4,29.76,North,0,0.0,0.0,85,0.00,,,-99.99,VWS V12.07,2013-05-11 11:35:00,
2013-05-11 06:45:00,45.1,40.9,29.76,North,0,0.0,0.0,85,0.00,,,-99.99,VWS V12.07,2013-05-11 11:45:00,
2013-05-11 06:54:00,45.5,41.6,29.76,North,0,0.0,0.0,86,0.00,,,-99.99,VWS V12.07,2013-05-11 11:54:00,
2013-05-11 06:59:00,45.7,41.7,29.76,North,0,0.0,0.0,86,0.00,,,-99.99,VWS V12.07,2013-05-11 11:59:00,
2013-05-11 07:04:00,45.9,41.9,29.73,North,0,0.0,0.0,86,0.00,,,-99.99,VWS V12.07,2013-05-11 12:04:00,
2013-05-11 07:09:00,46.0,42.1,29.73,North,0,0.0,0.0,86,0.00,,,-99.99,VWS V12.07,2013-05-11 12:09:00,
2013-05-11 07:15:00,46.0,42.1,29.73,North,0,0.0,0.0,86,0.00,,,-99.99,VWS V12.07,2013-05-11 12:15:00,
2013-05-11 07:24:00,46.4,42.5,29.73,North,0,0.0,0.0,86,0.00,,,-99.99,VWS V12.07,2013-05-11 12:24:00,
2013-05-11 07:29:00,46.6,42.6,29.73,North,0,0.0,0.0,86,0.00,,,-99.99,VWS V12.07,2013-05-11 12:29:00,
2013-05-11 07:34:00,46.9,43.0,29.73,North,0,0.0,0.0,86,0.00,,,-99.99,VWS V12.07,2013-05-11 12:34:00,
2013-05-11 07:40:00,47.1,43.2,29.73,North,0,0.0,0.0,86,0.00,,,-99.99,VWS V12.07,2013-05-11 12:40:00,
2013-05-11 07:49:00,47.3,43.6,29.70,North,0,0.0,0.0,87,0.00,,,-99.99,VWS V12.07,2013-05-11 12:49:00,
2013-05-11 07:54:00,47.5,43.8,29.70,North,0,0.0,0.0,87,0.00,,,-99.99,VWS V12.07,2013-05-11 12:54:00,
2013-05-11 08:00:00,47.7,44.0,29.70,North,0,0.0,0.0,87,0.00,,,-99.99,VWS V12.07,2013-05-11 13:00:00,
2013-05-11 08:10:00,48.4,44.7,29.70,North,0,0.0,0.0,87,0.00,,,-99.99,VWS V12.07,2013-05-11 13:10:00,
2013-05-11 08:15:00,48.6,45.2,29.70,North,0,0.0,0.0,88,0.00,,,-99.99,VWS V12.07,2013-05-11 13:15:00,
2013-05-11 08:25:00,49.8,46.7,29.70,North,0,0.0,0.0,89,0.00,,,-99.99,VWS V12.07,2013-05-11 13:25:00,
2013-05-11 08:30:00,50.2,47.1,29.70,North,0,0.0,0.0,89,0.00,,,-99.99,VWS V12.07,2013-05-11 13:30:00,
2013-05-11 08:35:00,50.4,47.2,29.70,North,0,0.0,0.0,89,0.00,,,-99.99,VWS V12.07,2013-05-11 13:35:00,
2013-05-11 08:40:00,50.5,47.4,29.70,North,0,0.0,0.0,89,0.00,,,-99.99,VWS V12.07,2013-05-11 13:40:00,
2013-05-11 08:45:00,50.5,47.1,29.70,North,0,0.0,0.0,88,0.00,,,-99.99,VWS V12.07,2013-05-11 13:45:00,
2013-05-11 08:50:00,50.4,47.0,29.70,North,0,0.0,0.0,88,0.00,,,-99.99,VWS V12.07,2013-05-11 13:50:00,
2013-05-11 08:55:00,50.4,47.0,29.70,North,0,0.0,0.0,88,0.00,,,-99.99,VWS V12.07,2013-05-11 13:55:00,
2013-05-11 09:00:00,50.5,47.1,29.70,North,0,0.0,0.0,88,0.00,,,-99.99,VWS V12.07,2013-05-11 14:00:00,
2013-05-11 09:05:00,50.7,47.3,29.70,North,0,0.0,0.0,88,0.00,,,-99.99,VWS V12.07,2013-05-11 14:05:00,
2013-05-11 09:10:00,50.5,46.8,29.70,North,0,0.0,0.0,87,0.00,,,-99.99,VWS V12.07,2013-05-11 14:10:00,
2013-05-11 09:15:00,50.5,46.8,29.70,North,0,0.0,0.0,87,0.00,,,-99.99,VWS V12.07,2013-05-11 14:15:00,
2013-05-11 09:24:00,50.7,46.7,29.70,North,0,0.0,0.0,86,0.00,,,-99.99,VWS V12.07,2013-05-11 14:24:00,
2013-05-11 09:30:00,50.9,46.9,29.70,North,0,0.0,0.0,86,0.00,,,-99.99,VWS V12.07,2013-05-11 14:30:00,
2013-05-11 09:34:00,51.1,47.0,29.67,North,0,0.0,0.0,86,0.00,,,-99.99,VWS V12.07,2013-05-11 14:34:00,
2013-05-11 09:39:00,51.3,47.2,29.67,North,0,0.0,0.0,86,0.00,,,-99.99,VWS V12.07,2013-05-11 14:39:00,
2013-05-11 09:45:00,51.4,47.4,29.67,North,0,0.0,0.0,86,0.00,,,-99.99,VWS V12.07,2013-05-11 14:45:00,
2013-05-11 09:54:00,52.0,47.3,29.67,North,0,0.0,0.0,84,0.00,,,-99.99,VWS V12.07,2013-05-11 14:54:00,
2013-05-11 09:59:00,52.0,47.3,29.67,North,0,0.0,0.0,84,0.00,,,-99.99,VWS V12.07,2013-05-11 14:59:00,
2013-05-11 10:04:00,52.0,47.0,29.67,North,0,0.0,0.0,83,0.00,,,-99.99,VWS V12.07,2013-05-11 15:04:00,
2013-05-11 10:09:00,52.0,46.7,29.67,North,0,0.0,0.0,82,0.00,,,-99.99,VWS V12.07,2013-05-11 15:09:00,
2013-05-11 10:15:00,52.0,46.3,29.67,North,0,0.0,0.0,81,0.00,,,-99.99,VWS V12.07,2013-05-11 15:15:00,
2013-05-11 10:24:00,52.2,46.2,29.67,North,0,0.0,0.0,80,0.00,,,-99.99,VWS V12.07,2013-05-11 15:24:00,
2013-05-11 10:29:00,52.2,45.8,29.67,North,0,0.0,0.0,79,0.00,,,-99.99,VWS V12.07,2013-05-11 15:29:00,
2013-05-11 10:34:00,52.2,45.8,29.67,North,0,0.0,0.0,79,0.00,,,-99.99,VWS V12.07,2013-05-11 15:34:00,
2013-05-11 10:39:00,52.2,45.5,29.67,North,0,0.0,0.0,78,0.00,,,-99.99,VWS V12.07,2013-05-11 15:39:00,
2013-05-11 10:45:00,51.1,42.4,29.67,North,0,0.0,0.0,72,0.00,,,-99.99,VWS V12.07,2013-05-11 15:45:00,
2013-05-11 10:54:00,49.3,36.4,29.70,North,0,0.0,0.0,61,0.00,,,-99.99,VWS V12.07,2013-05-11 15:54:00,
2013-05-11 11:00:00,48.7,35.5,29.70,North,0,0.0,0.0,60,0.00,,,-99.99,VWS V12.07,2013-05-11 16:00:00,
2013-05-11 11:09:00,47.7,34.9,29.73,North,0,0.0,0.0,61,0.00,,,-99.99,VWS V12.07,2013-05-11 16:09:00,
2013-05-11 11:20:00,47.5,35.1,29.73,North,0,0.0,0.0,62,0.00,,,-99.99,VWS V12.07,2013-05-11 16:20:00,
2013-05-11 11:29:00,48.0,32.6,29.73,North,0,0.0,0.0,55,0.00,,,-99.99,VWS V12.07,2013-05-11 16:29:00,
2013-05-11 11:34:00,48.2,30.9,29.73,North,0,0.0,0.0,51,0.00,,,-99.99,VWS V12.07,2013-05-11 16:34:00,
2013-05-11 11:40:00,48.2,30.5,29.73,North,0,0.0,0.0,50,0.00,,,-99.99,VWS V12.07,2013-05-11 16:40:00,
2013-05-11 11:44:00,47.7,30.0,29.73,North,0,0.0,0.0,50,0.00,,,-99.99,VWS V12.07,2013-05-11 16:44:00,
2013-05-11 11:50:00,47.3,29.6,29.76,North,0,0.0,0.0,50,0.00,,,-99.99,VWS V12.07,2013-05-11 16:50:00,
2013-05-11 12:00:00,47.3,30.6,29.76,North,0,0.0,0.0,52,0.00,,,-99.99,VWS V12.07,2013-05-11 17:00:00,
2013-05-11 12:09:00,48.7,31.4,29.76,North,0,0.0,0.0,51,0.00,,,-99.99,VWS V12.07,2013-05-11 17:09:00,
2013-05-11 12:14:00,49.3,29.9,29.76,North,0,0.0,0.0,47,0.00,,,-99.99,VWS V12.07,2013-05-11 17:14:00,
2013-05-11 12:20:00,50.0,30.6,29.76,North,0,0.0,0.0,47,0.00,,,-99.99,VWS V12.07,2013-05-11 17:20:00,
2013-05-11 12:29:00,51.3,29.5,29.76,North,0,0.0,0.0,43,0.00,,,-99.99,VWS V12.07,2013-05-11 17:29:00,
2013-05-11 12:34:00,51.6,29.3,29.76,North,0,0.0,0.0,42,0.00,,,-99.99,VWS V12.07,2013-05-11 17:34:00,
2013-05-11 12:39:00,51.4,27.9,29.76,North,0,0.0,0.0,40,0.00,,,-99.99,VWS V12.07,2013-05-11 17:39:00,
2013-05-11 12:44:00,50.9,27.5,29.76,North,0,0.0,0.0,40,0.00,,,-99.99,VWS V12.07,2013-05-11 17:44:00,
2013-05-11 12:49:00,50.7,27.3,29.76,North,0,0.0,0.0,40,0.00,,,-99.99,VWS V12.07,2013-05-11 17:49:00,
2013-05-11 12:55:00,51.1,27.6,29.76,North,0,0.0,0.0,40,0.00,,,-99.99,VWS V12.07,2013-05-11 17:55:00,
2013-05-11 13:04:00,52.0,27.2,29.76,North,0,0.0,0.0,38,0.00,,,-99.99,VWS V12.07,2013-05-11 18:04:00,
2013-05-11 13:09:00,52.0,27.8,29.76,North,0,0.0,0.0,39,0.00,,,-99.99,VWS V12.07,2013-05-11 18:09:00,
2013-05-11 13:14:00,52.3,27.5,29.76,North,0,0.0,0.0,38,0.00,,,-99.99,VWS V12.07,2013-05-11 18:14:00,
2013-05-11 13:19:00,52.7,27.2,29.76,North,0,0.0,0.0,37,0.00,,,-99.99,VWS V12.07,2013-05-11 18:19:00,
2013-05-11 13:25:00,52.7,27.8,29.76,North,0,0.0,0.0,38,0.00,,,-99.99,VWS V12.07,2013-05-11 18:25:00,
2013-05-11 13:34:00,51.8,25.7,29.79,North,0,0.0,0.0,36,0.00,,,-99.99,VWS V12.07,2013-05-11 18:34:00,
2013-05-11 13:39:00,52.2,26.0,29.79,North,0,0.0,0.0,36,0.00,,,-99.99,VWS V12.07,2013-05-11 18:39:00,
2013-05-11 13:44:00,52.5,26.4,29.79,North,0,0.0,0.0,36,0.00,,,-99.99,VWS V12.07,2013-05-11 18:44:00,
2013-05-11 13:49:00,52.0,25.2,29.79,North,0,0.0,0.0,35,0.00,,,-99.99,VWS V12.07,2013-05-11 18:49:00,
2013-05-11 13:54:00,51.8,25.7,29.79,North,0,0.0,0.0,36,0.00,,,-99.99,VWS V12.07,2013-05-11 18:54:00,
2013-05-11 14:00:00,51.8,25.7,29.79,North,0,0.0,0.0,36,0.00,,,-99.99,VWS V12.07,2013-05-11 19:00:00,
2013-05-11 14:09:00,52.0,25.2,29.79,North,0,0.0,0.0,35,0.00,,,-99.99,VWS V12.07,2013-05-11 19:09:00,
2013-05-11 14:14:00,51.6,25.6,29.79,North,0,0.0,0.0,36,0.00,,,-99.99,VWS V12.07,2013-05-11 19:14:00,
2013-05-11 14:19:00,52.2,24.0,29.79,North,0,0.0,0.0,33,0.00,,,-99.99,VWS V12.07,2013-05-11 19:19:00,
2013-05-11 14:24:00,52.9,24.6,29.79,North,0,0.0,0.0,33,0.00,,,-99.99,VWS V12.07,2013-05-11 19:24:00,
2013-05-11 14:29:00,53.1,23.2,29.79,North,0,0.0,0.0,31,0.00,,,-99.99,VWS V12.07,2013-05-11 19:29:00,
2013-05-11 14:35:00,53.4,23.6,29.79,North,0,0.0,0.0,31,0.00,,,-99.99,VWS V12.07,2013-05-11 19:35:00,
2013-05-11 14:44:00,53.1,23.2,29.79,North,0,0.0,0.0,31,0.00,,,-99.99,VWS V12.07,2013-05-11 19:44:00,
2013-05-11 14:49:00,53.1,22.5,29.79,North,0,0.0,0.0,30,0.00,,,-99.99,VWS V12.07,2013-05-11 19:49:00,
2013-05-11 14:54:00,52.9,22.3,29.79,North,0,0.0,0.0,30,0.00,,,-99.99,VWS V12.07,2013-05-11 19:54:00,
2013-05-11 14:59:00,52.9,23.1,29.79,North,0,0.0,0.0,31,0.00,,,-99.99,VWS V12.07,2013-05-11 19:59:00,
2013-05-11 15:09:00,52.2,21.7,29.79,North,0,0.0,0.0,30,0.00,,,-99.99,VWS V12.07,2013-05-11 20:09:00,
2013-05-11 15:14:00,52.0,21.5,29.79,North,0,0.0,0.0,30,0.00,,,-99.99,VWS V12.07,2013-05-11 20:14:00,
2013-05-11 15:19:00,51.8,21.4,29.79,North,0,0.0,0.0,30,0.00,,,-99.99,VWS V12.07,2013-05-11 20:19:00,
2013-05-11 15:25:00,51.6,21.2,29.79,North,0,0.0,0.0,30,0.00,,,-99.99,VWS V12.07,2013-05-11 20:25:00,
2013-05-11 15:35:00,51.6,20.4,29.79,North,0,0.0,0.0,29,0.00,,,-99.99,VWS V12.07,2013-05-11 20:35:00,
2013-05-11 15:44:00,51.1,22.3,29.79,North,0,0.0,0.0,32,0.00,,,-99.99,VWS V12.07,2013-05-11 20:44:00,
2013-05-11 15:49:00,50.9,24.2,29.82,North,0,0.0,0.0,35,0.00,,,-99.99,VWS V12.07,2013-05-11 20:49:00,
2013-05-11 15:54:00,51.6,22.7,29.82,North,0,0.0,0.0,32,0.00,,,-99.99,VWS V12.07,2013-05-11 20:54:00,
2013-05-11 16:00:00,51.1,22.3,29.82,North,0,0.0,0.0,32,0.00,,,-99.99,VWS V12.07,2013-05-11 21:00:00,
2013-05-11 16:09:00,48.7,24.3,29.82,North,0,0.0,0.0,38,0.00,,,-99.99,VWS V12.07,2013-05-11 21:09:00,
2013-05-11 16:14:00,49.3,25.4,29.82,North,0,0.0,0.0,39,0.00,,,-99.99,VWS V12.07,2013-05-11 21:14:00,
2013-05-11 16:19:00,50.2,24.9,29.82,North,0,0.0,0.0,37,0.00,,,-99.99,VWS V12.07,2013-05-11 21:19:00,
2013-05-11 16:24:00,51.1,25.1,29.82,North,0,0.0,0.0,36,0.00,,,-99.99,VWS V12.07,2013-05-11 21:24:00,
2013-05-11 16:29:00,51.3,24.6,29.82,North,0,0.0,0.0,35,0.00,,,-99.99,VWS V12.07,2013-05-11 21:29:00,
2013-05-11 16:35:00,51.1,23.7,29.82,North,0,0.0,0.0,34,0.00,,,-99.99,VWS V12.07,2013-05-11 21:35:00,
2013-05-11 16:44:00,51.8,23.6,29.82,North,0,0.0,0.0,33,0.00,,,-99.99,VWS V12.07,2013-05-11 21:44:00,
2013-05-11 16:49:00,52.2,22.5,29.82,North,0,0.0,0.0,31,0.00,,,-99.99,VWS V12.07,2013-05-11 21:49:00,
2013-05-11 16:54:00,52.0,20.7,29.82,North,0,0.0,0.0,29,0.00,,,-99.99,VWS V12.07,2013-05-11 21:54:00,
2013-05-11 16:59:00,52.0,19.9,29.82,North,0,0.0,0.0,28,0.00,,,-99.99,VWS V12.07,2013-05-11 21:59:00,
2013-05-11 17:09:00,52.2,20.1,29.82,North,0,0.0,0.0,28,0.00,,,-99.99,VWS V12.07,2013-05-11 22:09:00,
2013-05-11 17:14:00,52.3,20.2,29.82,North,0,0.0,0.0,28,0.00,,,-99.99,VWS V12.07,2013-05-11 22:14:00,
2013-05-11 17:19:00,52.3,20.2,29.82,North,0,0.0,0.0,28,0.00,,,-99.99,VWS V12.07,2013-05-11 22:19:00,
2013-05-11 17:24:00,52.0,19.9,29.82,North,0,0.0,0.0,28,0.00,,,-99.99,VWS V12.07,2013-05-11 22:24:00,
2013-05-11 17:29:00,51.1,20.8,29.82,North,0,0.0,0.0,30,0.00,,,-99.99,VWS V12.07,2013-05-11 22:29:00,
2013-05-11 17:34:00,50.4,20.1,29.85,North,0,0.0,0.0,30,0.00,,,-99.99,VWS V12.07,2013-05-11 22:34:00,
2013-05-11 17:40:00,50.2,21.5,29.85,North,0,0.0,0.0,32,0.00,,,-99.99,VWS V12.07,2013-05-11 22:40:00,
2013-05-11 17:49:00,51.3,21.7,29.85,North,0,0.0,0.0,31,0.00,,,-99.99,VWS V12.07,2013-05-11 22:49:00,
2013-05-11 17:54:00,51.6,21.2,29.85,North,0,0.0,0.0,30,0.00,,,-99.99,VWS V12.07,2013-05-11 22:54:00,
2013-05-11 17:59:00,52.0,20.7,29.85,North,0,0.0,0.0,29,0.00,,,-99.99,VWS V12.07,2013-05-11 22:59:00,
2013-05-11 18:04:00,52.3,20.2,29.85,North,0,0.0,0.0,28,0.00,,,-99.99,VWS V12.07,2013-05-11 23:04:00,
2013-05-11 18:10:00,52.0,19.1,29.85,North,0,0.0,0.0,27,0.00,,,-99.99,VWS V12.07,2013-05-11 23:10:00,
2013-05-11 18:19:00,50.7,19.6,29.85,North,0,0.0,0.0,29,0.00,,,-99.99,VWS V12.07,2013-05-11 23:19:00,
2013-05-11 18:24:00,50.2,18.4,29.85,North,0,0.0,0.0,28,0.00,,,-99.99,VWS V12.07,2013-05-11 23:24:00,
2013-05-11 18:29:00,49.8,18.9,29.85,North,0,0.0,0.0,29,0.00,,,-99.99,VWS V12.07,2013-05-11 23:29:00,
2013-05-11 18:34:00,50.2,19.2,29.85,North,0,0.0,0.0,29,0.00,,,-99.99,VWS V12.07,2013-05-11 23:34:00,
2013-05-11 18:40:00,50.2,19.2,29.85,North,0,0.0,0.0,29,0.00,,,-99.99,VWS V12.07,2013-05-11 23:40:00,
2013-05-11 18:49:00,50.0,19.8,29.85,North,0,0.0,0.0,30,0.00,,,-99.99,VWS V12.07,2013-05-11 23:49:00,
2013-05-11 18:54:00,49.8,19.6,29.85,North,0,0.0,0.0,30,0.00,,,-99.99,VWS V12.07,2013-05-11 23:54:00,
2013-05-11 19:00:00,49.8,19.6,29.85,North,0,0.0,0.0,30,0.00,,,-99.99,VWS V12.07,2013-05-12 00:00:00,
2013-05-11 19:10:00,49.1,19.8,29.85,North,0,0.0,0.0,31,0.00,,,-99.99,VWS V12.07,2013-05-12 00:10:00,
2013-05-11 19:19:00,48.6,20.1,29.88,North,0,0.0,0.0,32,0.00,,,-99.99,VWS V12.07,2013-05-12 00:19:00,
2013-05-11 19:24:00,48.4,19.2,29.88,North,0,0.0,0.0,31,0.00,,,-99.99,VWS V12.07,2013-05-12 00:24:00,
2013-05-11 19:29:00,48.2,19.0,29.88,North,0,0.0,0.0,31,0.00,,,-99.99,VWS V12.07,2013-05-12 00:29:00,
2013-05-11 19:35:00,48.0,18.8,29.88,North,0,0.0,0.0,31,0.00,,,-99.99,VWS V12.07,2013-05-12 00:35:00,
2013-05-11 19:44:00,47.7,19.3,29.88,North,0,0.0,0.0,32,0.00,,,-99.99,VWS V12.07,2013-05-12 00:44:00,
2013-05-11 19:49:00,47.3,19.0,29.88,North,0,0.0,0.0,32,0.00,,,-99.99,VWS V12.07,2013-05-12 00:49:00,
2013-05-11 19:54:00,47.3,19.0,29.88,North,0,0.0,0.0,32,0.00,,,-99.99,VWS V12.07,2013-05-12 00:54:00,
2013-05-11 19:59:00,47.1,19.5,29.88,North,0,0.0,0.0,33,0.00,,,-99.99,VWS V12.07,2013-05-12 00:59:00,
2013-05-11 20:10:00,46.8,19.9,29.88,North,0,0.0,0.0,34,0.00,,,-99.99,VWS V12.07,2013-05-12 01:10:00,
2013-05-11 20:19:00,46.4,20.2,29.88,North,0,0.0,0.0,35,0.00,,,-99.99,VWS V12.07,2013-05-12 01:19:00,
2013-05-11 20:24:00,46.2,20.1,29.88,North,0,0.0,0.0,35,0.00,,,-99.99,VWS V12.07,2013-05-12 01:24:00,
2013-05-11 20:29:00,46.0,19.9,29.88,North,0,0.0,0.0,35,0.00,,,-99.99,VWS V12.07,2013-05-12 01:29:00,
2013-05-11 20:34:00,46.0,19.3,29.88,North,0,0.0,0.0,34,0.00,,,-99.99,VWS V12.07,2013-05-12 01:34:00,
2013-05-11 20:40:00,45.9,19.1,29.88,North,0,0.0,0.0,34,0.00,,,-99.99,VWS V12.07,2013-05-12 01:40:00,
2013-05-11 20:49:00,45.5,18.8,29.88,North,0,0.0,0.0,34,0.00,,,-99.99,VWS V12.07,2013-05-12 01:49:00,
2013-05-11 20:54:00,45.3,19.3,29.88,North,0,0.0,0.0,35,0.00,,,-99.99,VWS V12.07,2013-05-12 01:54:00,
2013-05-11 20:59:00,45.3,19.3,29.88,North,0,0.0,0.0,35,0.00,,,-99.99,VWS V12.07,2013-05-12 01:59:00,
2013-05-11 21:04:00,45.1,19.1,29.88,North,0,0.0,0.0,35,0.00,,,-99.99,VWS V12.07,2013-05-12 02:04:00,
2013-05-11 21:10:00,45.0,19.6,29.88,North,0,0.0,0.0,36,0.00,,,-99.99,VWS V12.07,2013-05-12 02:10:00,
2013-05-11 21:19:00,44.6,20.0,29.91,North,0,0.0,0.0,37,0.00,,,-99.99,VWS V12.07,2013-05-12 02:19:00,
2013-05-11 21:24:00,44.4,20.4,29.91,North,0,0.0,0.0,38,0.00,,,-99.99,VWS V12.07,2013-05-12 02:24:00,
2013-05-11 21:29:00,44.2,20.3,29.91,North,0,0.0,0.0,38,0.00,,,-99.99,VWS V12.07,2013-05-12 02:29:00,
2013-05-11 21:34:00,44.1,20.1,29.91,North,0,0.0,0.0,38,0.00,,,-99.99,VWS V12.07,2013-05-12 02:34:00,
2013-05-11 21:40:00,44.1,20.1,29.91,North,0,0.0,0.0,38,0.00,,,-99.99,VWS V12.07,2013-05-12 02:40:00,
2013-05-11 21:49:00,43.7,20.4,29.91,North,0,0.0,0.0,39,0.00,,,-99.99,VWS V12.07,2013-05-12 02:49:00,
2013-05-11 21:54:00,43.7,20.4,29.91,North,0,0.0,0.0,39,0.00,,,-99.99,VWS V12.07,2013-05-12 02:54:00,
2013-05-11 21:59:00,43.5,20.2,29.91,North,0,0.0,0.0,39,0.00,,,-99.99,VWS V12.07,2013-05-12 02:59:00,
2013-05-11 22:05:00,43.3,20.1,29.91,North,0,0.0,0.0,39,0.00,,,-99.99,VWS V12.07,2013-05-12 03:05:00,
2013-05-11 22:10:00,43.2,20.5,29.91,North,0,0.0,0.0,40,0.00,,,-99.99,VWS V12.07,2013-05-12 03:10:00,
2013-05-11 22:19:00,43.0,20.3,29.91,North,0,0.0,0.0,40,0.00,,,-99.99,VWS V12.07,2013-05-12 03:19:00,
2013-05-11 22:24:00,42.8,20.2,29.91,North,0,0.0,0.0,40,0.00,,,-99.99,VWS V12.07,2013-05-12 03:24:00,
2013-05-11 22:29:00,42.8,20.8,29.91,North,0,0.0,0.0,41,0.00,,,-99.99,VWS V12.07,2013-05-12 03:29:00,
2013-05-11 22:34:00,42.8,20.8,29.91,North,0,0.0,0.0,41,0.00,,,-99.99,VWS V12.07,2013-05-12 03:34:00,
2013-05-11 22:40:00,42.6,20.6,29.91,North,0,0.0,0.0,41,0.00,,,-99.99,VWS V12.07,2013-05-12 03:40:00,
2013-05-11 22:49:00,42.3,20.8,29.91,North,0,0.0,0.0,42,0.00,,,-99.99,VWS V12.07,2013-05-12 03:49:00,
2013-05-11 22:54:00,42.3,20.8,29.91,North,0,0.0,0.0,42,0.00,,,-99.99,VWS V12.07,2013-05-12 03:54:00,
2013-05-11 23:00:00,42.1,21.2,29.91,North,0,0.0,0.0,43,0.00,,,-99.99,VWS V12.07,2013-05-12 04:00:00,
2013-05-11 23:04:00,41.9,21.0,29.91,North,0,0.0,0.0,43,0.00,,,-99.99,VWS V12.07,2013-05-12 04:04:00,
2013-05-11 23:10:00,41.9,21.0,29.91,North,0,0.0,0.0,43,0.00,,,-99.99,VWS V12.07,2013-05-12 04:10:00,
2013-05-11 23:19:00,41.9,21.6,29.91,North,0,0.0,0.0,44,0.00,,,-99.99,VWS V12.07,2013-05-12 04:19:00,
2013-05-11 23:24:00,42.1,21.8,29.91,North,0,0.0,0.0,44,0.00,,,-99.99,VWS V12.07,2013-05-12 04:24:00,
2013-05-11 23:29:00,42.3,21.9,29.91,North,0,0.0,0.0,44,0.00,,,-99.99,VWS V12.07,2013-05-12 04:29:00,
2013-05-11 23:35:00,42.3,21.9,29.91,North,0,0.0,0.0,44,0.00,,,-99.99,VWS V12.07,2013-05-12 04:35:00,
2013-05-11 23:44:00,42.4,22.1,29.91,North,0,0.0,0.0,44,0.00,,,-99.99,VWS V12.07,2013-05-12 04:44:00,
2013-05-11 23:49:00,42.4,22.1,29.91,North,0,0.0,0.0,44,0.00,,,-99.99,VWS V12.07,2013-05-12 04:49:00,
2013-05-11 23:54:00,42.6,22.2,29.91,North,0,0.0,0.0,44,0.00,,,-99.99,VWS V12.07,2013-05-12 04:54:00,
2013-05-11 23:59:00,42.6,22.2,29.91,North,0,0.0,0.0,44,0.00,,,-99.99,VWS V12.07,2013-05-12 04:59:00,